CAPE
0 0 0 0 0 0 0 0 0 0 0 0 0 0 0 0 0 0 0 0 0 0
0 0 0 0 0 0 0 0 0 0 0 0 0 0 0 0 0 0 0 1 0 1
0 0 0 0 0 0 0 0 0 0 0 0 0 0 0 0 0 0 0 1 0 0
0 0 0 0 0 0 0 0 0 0 0 0 0 0 0 0 0 0 0 0 0 0
0 0 0 0 0 0 0 0 0 0 0 0 0 0 0 0 0 0 0 0 1 0
0 0 0 0 0 0 0 0 0 0 0 0 0 0 0 0 0 0 2 1 1 1
0 0 0 0 0 0 0 0 0 0 0 0 0 0 0 0 1 1 1 1 1 1
0 0 0 0 0 0 0 0 0 0 0 0 0 0 1 1 2 1 1 1 0 1
0 0 0 0 0 0 0 0 0 0 0 0 0 0 2 2 1 0 1 1 1 0
0 0 0 0 0 0 0 0 0 0 0 0 0 0 2 1 0 0 1 0 0 0
0 0 0 0 0 0 0 0 0 0 0 0 0 1 1 0 0 0 0 0 0 0
0 0 0 0 0 0 0 0 0 0 0 0 0 0 3 0 1 0 0 0 0 0
0 0 0 0 0 0 0 0 0 0 0 0 0 0 5 1 1 1 1 0 0 0
0 0 0 0 0 0 0 0 0 0 0 0 0 0 4 0 0 1 1 0 0 0
CIN
0 0 0 0 0 0 0 0 0 0 0 0 0 0 0 0 0 0 0 0 0 -1
0 0 0 0 0 0 0 0 0 0 0 0 0 0 0 0 0 0 0 -3 -2 -3
0 0 0 0 0 0 0 0 0 0 0 0 0 0 0 0 0 0 0 -11 -4 -5
0 0 0 0 0 0 0 0 0 0 0 0 0 0 0 0 0 0 0 0 0 0
0 0 0 0 0 0 0 0 0 0 0 0 0 0 0 0 0 0 0 0 0 0
0 0 0 0 0 0 0 0 0 0 0 0 0 0 0 0 0 0 0 0 0 0
0 0 0 0 0 0 0 0 0 0 0 0 0 0 0 0 0 0 0 0 0 0
0 0 0 0 0 0 0 0 0 0 0 0 0 0 0 0 0 0 0 0 0 0
0 0 0 0 0 0 0 0 0 0 0 0 0 0 0 0 0 0 0 0 0 0
0 0 0 0 0 0 0 0 0 0 0 0 0 0 0 0 0 0 0 0 0 0
0 0 0 0 0 0 0 0 0 0 0 0 0 0 0 0 0 0 0 0 0 0
0 0 0 0 0 0 0 0 0 0 0 0 0 0 0 0 0 0 0 0 0 0
0 0 0 0 0 0 0 0 0 0 0 0 0 0 0 0 0 0 0 0 0 0
0 0 0 0 0 0 -3 0 0 0 0 0 0 0 0 0 0 0 0 0 0 0
Wind_Speed
15 16 16 17 18 19 19 20 22 24 25 26 27 28 28 29 30 30 31 32 32 31
15 16 16 17 18 19 20 22 24 25 26 27 27 28 29 30 31 32 32 32 32 31
13 15 16 17 18 19 21 23 26 26 25 27 28 29 30 31 32 33 33 32 32 31
12 14 15 17 19 19 21 24 25 26 26 27 29 30 31 32 32 33 32 31 31 29
11 12 14 17 17 18 21 23 25 26 27 28 29 31 32 31 31 32 33 31 29 28
13 14 14 16 17 19 21 23 25 25 26 29 30 31 30 30 30 30 29 28 27 26
12 14 14 16 18 19 21 23 24 26 27 29 30 30 29 31 30 29 27 26 24 24
14 14 15 17 19 20 20 23 25 26 28 29 29 29 31 30 28 26 25 23 22 22
11 14 16 19 19 20 21 23 25 27 28 29 29 30 30 28 26 23 22 21 20 19
14 15 17 18 18 19 21 23 25 27 28 29 29 30 29 26 23 20 19 20 17 18
16 17 18 17 18 19 21 24 26 27 27 28 28 29 26 23 20 19 18 17 17 17
12 14 16 17 18 19 21 24 26 27 27 26 27 27 24 22 19 18 18 17 17 16
12 14 16 17 18 19 21 24 26 27 26 23 24 25 23 21 18 17 15 15 15 15
13 13 14 15 17 20 22 24 26 26 26 21 21 24 23 19 17 15 13 13 13 14
Wind_Direction
299 300 306 309 310 313 317 320 322 323 322 322 321 321 321 321 320 318 316 315 313 312
299 300 302 304 307 311 316 318 322 323 322 322 323 323 322 321 319 319 317 316 315 312
305 302 304 309 311 312 316 317 320 322 325 324 323 323 322 320 319 318 318 317 316 315
312 309 309 309 311 313 318 320 324 322 322 323 322 322 322 321 319 318 319 320 318 317
315 317 315 315 316 320 324 325 325 323 323 324 322 323 321 321 321 319 319 320 322 322
312 312 316 318 319 321 325 327 326 326 326 325 324 321 322 323 323 325 327 327 326 326
308 313 319 321 320 320 322 328 331 329 328 324 323 325 325 325 326 329 332 335 336 336
305 312 318 319 317 321 326 328 330 331 326 327 327 328 326 327 332 336 339 342 342 341
321 314 313 315 319 323 327 331 333 329 330 328 329 328 329 334 337 342 346 347 349 348
304 314 310 314 319 326 330 333 335 334 331 328 329 331 334 340 346 348 349 351 353 353
301 302 304 312 318 327 334 337 333 331 330 331 335 336 343 347 351 351 351 350 349 349
301 305 305 311 320 327 337 333 330 329 333 337 339 341 349 350 351 349 344 342 345 350
300 299 305 314 322 333 332 330 328 331 338 346 349 349 351 355 353 348 346 346 350 355
294 303 314 321 329 328 326 326 329 333 340 355 355 352 353 359 353 344 347 346 348 351